Weather History for Freeport, IL

Change the Weather History Date:

Thursday, October 11, 2012

  Actual Average Record
Temperature  
Mean Temperature 51 °F -  
Max Temperature 66 °F 60 °F 82 °F (2010)
Min Temperature 36 °F 38 °F 24 °F (1987)
Degree Days  
Heating Degree Days 14    
Growing Degree Days 1 (Base 50)    
Moisture  
Dew Point 33 °F    
Average Humidity 55    
Maximum Humidity 74    
Minimum Humidity 27    
Precipitation  
Precipitation 0.00 in - - ()
Sea Level Pressure  
Sea Level Pressure 30.12 in    
Wind  
Wind Speed 13 mph (SW)    
Max Wind Speed 22 mph    
Max Gust Speed 30 mph    
Visibility 10 miles    
Events      
Averages and records for this station are not official NWS values.
T = Trace of Precipitation, MM = Missing Value Source: NWS Daily Summary

Daily Weather History Graph

Daily Weather History Graph

Search for Another Location

Airport:

Trip Planner

Search our weather history database for the weather conditions in past years. The results will help you decide how hot, cold, wet, or windy it might be!

Date:

Astronomy

Oct. 11, 2012 Rise Set
Actual Time 7:07 AM CDT 6:22 PM CDT
Civil Twilight 6:38 AM CDT 6:50 PM CDT
Nautical Twilight 6:06 AM CDT 7:22 PM CDT
Astronomical Twilight 5:33 AM CDT 7:55 PM CDT
Moon 2:41 AM CDT (10/11) 4:02 PM CDT (10/11)
Length of Visible Light 12h 11m
Length of Day
11h 15m
Waning Crescent, 18% of the Moon is Illuminated
Oct 11
Waning Crescent
Oct 15
New
Oct 21
First Quarter
Oct 29
Full
Nov 6
Last Quarter

Hourly Weather History & Observations

Time (CDT) Temp. Windchill Dew Point Humidity Pressure Visibility Wind Dir Wind Speed Gust Speed Precip Events Conditions
12:15 AM 36.1 °F 28.7 °F 28.4 °F 73% 30.14 in 10.0 mi SSE 10.4 mph - N/A   Mostly Cloudy
12:35 AM 36.1 °F 29.3 °F 28.4 °F 73% 30.14 in 10.0 mi SSE 9.2 mph - N/A   Mostly Cloudy
12:55 AM 38.7 °F 31.8 °F 29.8 °F 71% 30.13 in 10.0 mi SSE 10.4 mph - N/A   Scattered Clouds
1:15 AM 38.7 °F 32.4 °F 30.2 °F 72% 30.13 in 10.0 mi SSE 9.2 mph - N/A   Clear
1:35 AM 38.1 °F 31.7 °F 30.4 °F 74% 30.12 in 10.0 mi SSE 9.2 mph - N/A   Clear
1:55 AM 39.2 °F 32.5 °F 30.2 °F 70% 30.12 in 10.0 mi South 10.4 mph - N/A   Clear
2:15 AM 38.7 °F 31.4 °F 30.0 °F 71% 30.11 in 10.0 mi South 11.5 mph - N/A   Clear
2:35 AM 38.7 °F 30.9 °F 30.2 °F 72% 30.10 in 10.0 mi South 12.7 mph - N/A   Clear
2:55 AM 38.7 °F 31.8 °F 29.5 °F 70% 30.10 in 10.0 mi South 10.4 mph - N/A   Clear
3:15 AM 40.5 °F 32.5 °F 30.2 °F 67% 30.09 in 10.0 mi South 15.0 mph - N/A   Clear
3:35 AM 41.2 °F 33.4 °F 30.2 °F 65% 30.09 in 10.0 mi South 15.0 mph - N/A   Clear
3:55 AM 41.2 °F 33.4 °F 30.9 °F 67% 30.09 in 10.0 mi South 15.0 mph 19.6 mph N/A   Clear
4:15 AM 41.0 °F 33.1 °F 31.1 °F 68% 30.10 in 10.0 mi South 15.0 mph 20.7 mph N/A   Clear
4:35 AM 41.2 °F 33.0 °F 30.7 °F 66% 30.09 in 10.0 mi South 16.1 mph - N/A   Clear
4:55 AM 41.2 °F 32.7 °F 30.7 °F 66% 30.08 in 10.0 mi South 17.3 mph - N/A   Clear
5:15 AM 41.0 °F 31.9 °F 32.0 °F 70% 30.08 in 10.0 mi South 19.6 mph 25.3 mph N/A   Clear
5:35 AM 41.2 °F 32.7 °F 31.1 °F 67% 30.09 in 10.0 mi SSW 17.3 mph 25.3 mph N/A   Clear
5:55 AM 41.2 °F 32.4 °F 31.6 °F 69% 30.08 in 10.0 mi South 18.4 mph 25.3 mph N/A   Clear
6:15 AM 41.2 °F 32.4 °F 31.6 °F 69% 30.08 in 10.0 mi South 18.4 mph - N/A   Clear
6:35 AM 41.2 °F 32.4 °F 32.0 °F 70% 30.08 in 10.0 mi South 18.4 mph - N/A   Clear
6:55 AM 41.2 °F 33.0 °F 32.0 °F 70% 30.08 in 10.0 mi SSW 16.1 mph - N/A   Clear
7:15 AM 41.0 °F 32.5 °F 32.0 °F 70% 30.08 in 10.0 mi SSW 17.3 mph 26.5 mph N/A   Clear
7:35 AM 41.2 °F 32.7 °F 31.6 °F 69% 30.08 in 10.0 mi SSW 17.3 mph 21.9 mph N/A   Clear
7:55 AM 43.7 °F 36.0 °F 32.9 °F 66% 30.09 in 10.0 mi SSW 17.3 mph 21.9 mph N/A   Clear
8:15 AM 43.7 °F 36.0 °F 32.4 °F 64% 30.09 in 10.0 mi South 17.3 mph 24.2 mph N/A   Clear
8:35 AM 44.6 °F 37.2 °F 32.2 °F 62% 30.08 in 10.0 mi SSW 17.3 mph - N/A   Clear
8:55 AM 46.4 °F 39.2 °F 32.0 °F 57% 30.08 in 10.0 mi SSW 18.4 mph 26.5 mph N/A   Clear
9:15 AM 48.2 °F - 33.8 °F 58% 30.08 in 10.0 mi SSW 20.7 mph 24.2 mph N/A   Clear
9:35 AM 50.5 °F - 33.8 °F 53% 30.09 in 10.0 mi SSW 20.7 mph 26.5 mph N/A   Clear
9:55 AM 54.0 °F - 34.9 °F 49% 30.09 in 10.0 mi SSW 21.9 mph 26.5 mph N/A   Clear
10:15 AM 54.0 °F - 32.9 °F 45% 30.09 in 10.0 mi SSW 21.9 mph 26.5 mph N/A   Clear
10:35 AM 56.3 °F - 33.3 °F 42% 30.09 in 10.0 mi SSW 15.0 mph 29.9 mph N/A   Clear
10:55 AM 59.0 °F - 33.8 °F 39% 30.09 in 10.0 mi SW 18.4 mph 25.3 mph N/A   Clear
11:15 AM 60.1 °F - 32.5 °F 35% 30.09 in 10.0 mi SSW 19.6 mph 25.3 mph N/A   Clear
11:35 AM 61.7 °F - 31.8 °F 33% 30.09 in 10.0 mi SW 20.7 mph 27.6 mph N/A   Clear
11:55 AM 63.5 °F - 31.5 °F 30% 30.09 in 10.0 mi SW 15.0 mph 25.3 mph N/A   Clear
12:15 PM 64.4 °F - 30.2 °F 28% 30.08 in 10.0 mi SW 17.3 mph 21.9 mph N/A   Clear
12:35 PM 64.0 °F - 30.9 °F 29% 30.08 in 10.0 mi WSW 18.4 mph 25.3 mph N/A   Clear
12:55 PM 64.0 °F - 30.2 °F 28% 30.07 in 10.0 mi SW 15.0 mph 24.2 mph N/A   Clear
1:15 PM 64.9 °F - 30.2 °F 27% 30.07 in 10.0 mi WSW 18.4 mph 24.2 mph N/A   Clear
1:35 PM 65.1 °F - 30.2 °F 27% 30.07 in 10.0 mi WSW 16.1 mph 24.2 mph N/A   Clear
1:55 PM 66.0 °F - 30.7 °F 27% 30.06 in 10.0 mi WSW 15.0 mph 21.9 mph N/A   Clear
2:15 PM 66.6 °F - 31.3 °F 27% 30.06 in 10.0 mi WSW 16.1 mph 24.2 mph N/A   Clear
2:35 PM 64.2 °F - 31.6 °F 30% 30.06 in 10.0 mi SW 12.7 mph 17.3 mph N/A   Clear
2:55 PM 65.3 °F - 32.2 °F 29% 30.05 in 10.0 mi SW 12.7 mph 17.3 mph N/A   Clear
3:15 PM 66.2 °F - 32.0 °F 28% 30.05 in 10.0 mi WSW 16.1 mph 20.7 mph N/A   Clear
3:35 PM 66.0 °F - 32.7 °F 29% 30.05 in 10.0 mi SW 11.5 mph 18.4 mph N/A   Clear
3:55 PM 65.8 °F - 33.1 °F 30% 30.06 in 10.0 mi SW 11.5 mph 17.3 mph N/A   Clear
4:15 PM 65.1 °F - 32.9 °F 30% 30.07 in 10.0 mi West 13.8 mph 20.7 mph N/A   Scattered Clouds
4:55 PM 64.4 °F - 32.0 °F 30% 30.08 in 10.0 mi WNW 16.1 mph 20.7 mph N/A   Mostly Cloudy
5:15 PM 60.1 °F - 33.3 °F 36% 30.10 in 10.0 mi NW 16.1 mph 21.9 mph N/A   Mostly Cloudy
5:35 PM 59.0 °F - 35.6 °F 42% 30.11 in 10.0 mi NNW 13.8 mph - N/A   Mostly Cloudy
5:55 PM 56.5 °F - 35.1 °F 45% 30.13 in 10.0 mi NW 13.8 mph 19.6 mph N/A   Mostly Cloudy
6:15 PM 56.5 °F - 37.0 °F 48% 30.14 in 10.0 mi NNW 15.0 mph 19.6 mph N/A   Overcast
6:35 PM 54.0 °F - 37.6 °F 54% 30.14 in 10.0 mi NNW 16.1 mph 20.7 mph N/A   Overcast
6:55 PM 54.0 °F - 40.8 °F 61% 30.16 in 10.0 mi NNW 13.8 mph 21.9 mph N/A   Overcast
7:15 PM 51.4 °F - 39.9 °F 65% 30.18 in 10.0 mi NNW 9.2 mph 16.1 mph N/A   Overcast
7:35 PM 51.4 °F - 41.0 °F 68% 30.18 in 10.0 mi NW 8.1 mph - N/A   Overcast
7:55 PM 50.0 °F - 41.0 °F 71% 30.19 in 10.0 mi NNW 8.1 mph - N/A   Overcast
8:15 PM 50.0 °F - 39.7 °F 68% 30.20 in 10.0 mi NNW 6.9 mph - N/A   Overcast
8:35 PM 49.5 °F - 37.9 °F 65% 30.22 in 10.0 mi NW 10.4 mph 16.1 mph N/A   Overcast
8:55 PM 48.2 °F - 37.4 °F 66% 30.23 in 10.0 mi NNW 11.5 mph 17.3 mph N/A   Light Drizzle
9:15 PM 47.3 °F - 36.5 °F 66% 30.22 in 10.0 mi NNW 8.1 mph - N/A   Drizzle
9:55 PM 46.4 °F 44.3 °F 35.6 °F 66% 30.25 in 10.0 mi North 4.6 mph - N/A   Light Drizzle
10:15 PM 46.4 °F - 35.8 °F 67% 30.26 in 10.0 mi Calm Calm - N/A   Drizzle
10:35 PM 46.4 °F 45.2 °F 35.6 °F 66% 30.27 in 10.0 mi NNW 3.5 mph - N/A   Overcast
10:55 PM 44.6 °F 43.1 °F 35.6 °F 71% 30.28 in 10.0 mi NNW 3.5 mph - N/A   Overcast
11:35 PM 45.3 °F 41.6 °F 34.9 °F 67% 30.30 in 10.0 mi NW 6.9 mph - N/A   Overcast
11:55 PM 46.4 °F 42.9 °F 31.3 °F 56% 30.30 in 10.0 mi NNW 6.9 mph - N/A   Overcast